Regional Weather Roundup
Issued by NWS

Home | Current Version | Previous Version | Text Only | Print | Product List | Glossary On
Versions: 1 2 3 4 5 6 7 8 9 10 11 12 13 14 15 16 17 18 19 20 21 22 23 24 25 26 27 28 29 30 31 32 33 34 35 36 37 38 39 40 41 42 43 44 45 46 47 48 49 50
000
ASUS45 KABQ 230601
RWRNM
NEW MEXICO REGIONAL WEATHER ROUNDUP
NATIONAL WEATHER SERVICE ALBUQUERQUE NM
1200 AM MDT SAT MAY 23 2015

NOTE: "FAIR" MEANS FEW OR NO CLOUDS BELOW 12,000 FEET AGL WITH NO
       SIGNIFICANT WEATHER OR OBSTRUCTIONS TO VISION.

      THIS PRODUCT IS RELEASED AS TWO VERSIONS.  ONE VERSION NEAR
      THE TOP OF THE HOUR CONTAINING PRELIMINARY DATA FROM ALBUQUERQUE
      AND OTHER STATIONS.  A FINAL VERSION WITH ADDITIONAL DATA IS
      ISSUED ABOUT 10 MINUTES AFTER THE HOUR.

NMZ501-503-504-510>518-230700-
NORTHWEST PLATEAU/NORTHCENTRAL MOUNTAINS

CITY           SKY/WX    TMP DP  RH WIND       PRES   REMARKS
FARMINGTON     CLEAR     55  30  38 NW9G20    29.99R
6HR MIN TEMP:  55; 6HR MAX TEMP:  69; 6HR PCP: TRACE;

SANTA FE       MOCLDY    56  49  77 SE16      30.02R
6HR MIN TEMP:  55; 6HR MAX TEMP:  66;

TAOS           CLEAR     50  34  53 SE8       30.04F

$$
NMZ402-403-502-505>509-230700-
WESTCENTRAL MOUNTAINS/SOUTHWEST MOUNTAINS

CITY           SKY/WX    TMP DP  RH WIND       PRES   REMARKS
GALLUP         MOCLDY    50  24  36 W12       30.06R
6HR MIN TEMP:  50; 6HR MAX TEMP:  65;

GRANTS         CLOUDY    52  24  33 CALM      30.07S
SILVER CITY    CLEAR     57  19  23 W18       30.05F

$$
NMZ407-409-411-412-230700-
SOUTHERN DESERTS

CITY           SKY/WX    TMP DP  RH WIND       PRES   REMARKS
LORDSBURG      FAIR      61  23  23 W9        30.02R
DEMING         CLEAR     65  19  17 W13       29.98R
6HR MIN TEMP:  65; 6HR MAX TEMP:  85;

HOLLOMAN AFB   MOCLDY    71  48  45 S15       29.92S
ALAMOGORDO     MOCLDY    72  37  28 S14       29.94S
T OR C         PTCLDY    68  17  14 W13       29.93F
6HR MIN TEMP:  67; 6HR MAX TEMP:  81;


$$
NMZ519>523-230700-
CENTRAL VALLEYS/CENTRAL HIGHLANDS

CITY           SKY/WX    TMP DP  RH WIND       PRES   REMARKS
ALBUQUERQUE    MOCLDY    62  27  26 SE10      29.96S
6HR MIN TEMP:  62; 6HR MAX TEMP:  75;

DOUBLE EAGLE   PTCLDY    54  31  40 W12       29.98S
MORIARTY ARPT  CLOUDY    56  51  84 S14G20    30.05F
6HR MIN TEMP:  56; 6HR MAX TEMP:  69;

CLINES CORNERS CLOUDY    54  51  90 S26       30.07F
6HR MIN TEMP:  52; 6HR MAX TEMP:  65;

BELEN          FAIR      56  19  23 SW8       29.95S
6HR MIN TEMP:  54; 6HR MAX TEMP:  76;

SOCORRO        NOT AVBL

$$
NMZ524>526-539-540-230700-
SOUTHCENTRAL MOUNTAINS

CITY           SKY/WX    TMP DP  RH WIND       PRES   REMARKS
RUIDOSO        NOT AVBL

$$
NMZ527>531-230700-
NORTHEAST HIGHLANDS/NORTHEAST PLAINS

CITY           SKY/WX    TMP DP  RH WIND       PRES   REMARKS
LAS VEGAS      CLOUDY    52  51  97 S14       30.10F
6HR MIN TEMP:  49; 6HR MAX TEMP:  61;

RATON          CLOUDY    53  46  77 S8        30.07S
6HR MIN TEMP:  53; 6HR MAX TEMP:  62; 6HR PCP: TRACE;

CLAYTON        CLOUDY    56  53  90 S18       30.05F
6HR MIN TEMP:  55; 6HR MAX TEMP:  67;


$$
NMZ532>537-230700-
EASTCENTRAL PLAINS

CITY           SKY/WX    TMP DP  RH WIND       PRES   REMARKS
TUCUMCARI      CLOUDY    62  56  80 S9        30.02F
6HR MIN TEMP:  60; 6HR MAX TEMP:  72;

CANNON AFB     DRZL/FOG  59  59 100 SE13      30.04F VSB 1/2
CLOVIS AIRPORT CLOUDY    57  57 100 SE14      30.02F VSB 1

$$
NMZ028-029-538-230700-
SOUTHEAST PLAINS

CITY           SKY/WX    TMP DP  RH WIND       PRES   REMARKS
ROSWELL        CLOUDY    67  63  87 SE16      29.94F
6HR MIN TEMP:  65; 6HR MAX TEMP:  75;

ARTESIA        CLEAR     66  64  94 SE20G26   29.95F
CARLSBAD       CLOUDY    69  64  84 SE10      29.95F
6HR MIN TEMP:  69; 6HR MAX TEMP:  75; 6HR PCP:  0.06;

HOBBS          CLOUDY    66  66 100 SE13G20   30.02F


$$



USA.gov is the U.S. government's official web portal to all federal, state and local government web resources and services.